Location: ?
(35.4554°N, 139.3092°E)
Time: 20:58:07
(UTC+00:00)

SL-4 R/B - Pass Details

Date: 21 April 2021
Orbit: 427 x 663 km, 51.6° (Epoch: 10 May)

Event Time Altitude Azimuth Distance (km) Brightness Sun altitude
Exits shadow 18:38:23 - 304° (NW) 2,479 5.1 -16.6°
Reaches altitude 10° 18:39:27 10° 301° (WNW) 2,080 4.7 -16.4°
Maximum altitude 18:44:05 48° 228° (SW) 851 2.5 -15.6°
Drops below altitude 10° 18:48:34 10° 154° (SSE) 2,011 4.9 -14.7°
Sets 18:50:53 0° 149° (SSE) 2,887 5.8 -14.3°
